Content
SEND FEEDBACK

Daily
Averages
Monthly
Summary
Canada

QUEBEC CITY, QUEBEC


Home > North America > Canada > Quebec
Elevation: 239 feet     Latitude: 46 48N     Longitude: 071 23W

WEATHER
 
SELECT A DAY
Number of Records: 192,044;   Date Range: 6/30/96 - 7/27/14
 
SHARE

PRINT THIS DATA

[ ← Previous Day ]
WEATHER ALMANAC - JUNE 21, 2013
[ Next Day → ]
[ °C ]   °F
Weather ElementAverageHighLow
Temperature66.2 °F77 °F (3:00 pm)55.4 °F (1:00 am)
Dewpoint47.1 °F55.4 °F (9:00 am) (7:00 pm)
Humidity56.1 %82 % (5:00 am)23 % (5:00 pm)
Barometer28.33 in30.19 in (10:00 am) (7:00 pm)
Wind Speed8.5 mph16.1 mph (1:00 pm)
Wind Gust24.2 mph (3:00 pm)
Weather ElementAverage
Visibility26.4 mi
Wind DirectionSW (226.1 °)

Weather ElementTotal
Precipitation---
Cooling Degree Days1.2 (Base 65)
Growing Degree Days16.2 (Base 50)
Averaged from 33 records on June 21, 2013
WEATHER CONDITIONS BREAKOUT
WIND DIRECTION BREAKOUT
WEATHER BY HOUR - JUNE 21, 2013
[ °C ]   °F
Local TimeTemperatureDewpointHumidityBarometerVisibilityWind DirectionWind SpeedGust SpeedPrecipitationEventsConditions
1:00 AM55.4 °F48.2 °F77 %30.16 in15.0 miWSW (250°)8.1 mphPartly Cloudy
2:00 AM57.0 °F50.0 °F72 %30.14 inWest (270°)4.6 mph
2:00 AM59.0 °F50.0 °F72 %30.15 in15.0 miWSW (240°)10.4 mphMostly Cloudy
3:00 AM59.0 °F50.0 °F72 %30.14 in15.0 miWSW (240°)13.8 mphMostly Cloudy
4:00 AM59.0 °F50.0 °F72 %30.14 in15.0 miWSW (250°)9.2 mphMostly Cloudy
5:00 AM58.0 °F51.0 °F72 %30.13 inWSW (250°)4.6 mph
5:00 AM57.2 °F51.8 °F82 %30.15 in30.0 miWSW (240°)4.6 mphMostly Cloudy
6:00 AM57.2 °F50.0 °F77 %30.15 in30.0 miSW (220°)8.1 mphMostly Cloudy
6:55 AM59.0 °F0.0 °F30.0 miSW (230°)8.1 mphRainLight Rain Showers
7:00 AM57.2 °F51.8 °F82 %30.16 in30.0 miSW (230°)8.1 mphRainLight Rain Showers
7:35 AM59.0 °F0.0 °F30.0 miSW (230°)9.2 mphMostly Cloudy
8:00 AM60.0 °F54.0 °F76 %30.14 inWSW (250°)6.9 mph
8:00 AM60.8 °F53.6 °F77 %30.16 in30.0 miSW (230°)11.5 mphPartly Cloudy
9:00 AM64.4 °F55.4 °F73 %30.18 in30.0 miSW (230°)9.2 mphPartly Cloudy
10:00 AM69.8 °F55.4 °F60 %30.19 in30.0 miSW (230°)9.2 mphPartly Cloudy
11:00 AM71.6 °F53.6 °F53 %30.18 in30.0 miSW (220°)12.7 mphPartly Cloudy
11:00 AM70.0 °F55.0 °F48 %30.16 inSW (220°)6.9 mph
12:00 PM73.4 °F53.6 °F50 %30.18 in30.0 miWSW (250°)11.5 mphScattered Clouds
1:00 PM75.2 °F50.0 °F41 %30.17 in30.0 miWNW (290°)16.1 mph23.0 mphPartly Cloudy
2:00 PM75.0 °F48.0 °F27 %30.14 inWest (280°)12.7 mph
2:00 PM75.2 °F48.2 °F38 %30.17 in30.0 miWNW (290°)11.5 mph18.4 mphPartly Cloudy
3:00 PM77.0 °F46.4 °F34 %30.17 in30.0 miWest (270°)15.0 mph24.2 mphPartly Cloudy
4:00 PM77.0 °F46.4 °F34 %30.17 in30.0 miWest (270°)11.5 mph20.7 mphPartly Cloudy
5:00 PM77.0 °F46.4 °F34 %30.16 in30.0 miWNW (290°)9.2 mphPartly Cloudy
5:00 PM76.0 °F46.0 °F23 %30.14 inWest (270°)11.5 mph
6:00 PM77.0 °F46.4 °F34 %30.16 in30.0 miWNW (290°)11.5 mphPartly Cloudy
7:00 PM75.2 °F46.4 °F36 %30.17 in30.0 miWNW (290°)9.2 mphPartly Cloudy
8:00 PM70.0 °F52.0 °F41 %30.14 inNW (310°)3.5 mph
8:00 PM73.4 °F46.4 °F38 %30.17 in30.0 miWest (260°)3.5 mphPartly Cloudy
9:00 PM66.2 °F50.0 °F56 %30.17 in30.0 miNNE (30°)3.5 mphPartly Cloudy
10:00 PM62.6 °F50.0 °F63 %30.18 in15.0 miCalmScattered Clouds
11:00 PM59.0 °F49.0 °F62 %30.16 inNNE (20°)1.2 mph
11:00 PM60.8 °F48.2 °F63 %30.18 in15.0 miNNE (20°)4.6 mphMostly Cloudy
Hourly data recorded from CYQB, located miles away from Quebec City, Quebec







STORIES FROM OUR PARTNERS